Regional Weather Roundup
Issued by NWS Albany, NY

Home | Current Version | Previous Version | Text Only | Print | Product List | Glossary On
Versions: 1 2 3 4 5 6 7 8 9 10 11 12 13 14 15 16 17 18 19 20 21 22 23 24 25 26 27 28
000
ASUS41 KALY 141510
RWRALY

NEW YORK STATE HOURLY WEATHER ROUNDUP
NATIONAL WEATHER SERVICE ALBANY NY
1000 AM EST THU DEC 14 2017

NOTE: "FAIR" INDICATES FEW OR NO CLOUDS BELOW 12,000 FEET WITH NO
SIGNIFICANT WEATHER AND/OR NO OBSTRUCTIONS TO VISIBILITY.

NYZ032-033-038>043-046>054-057>066-NYZ062>081-082-084-141600-
EAST


CITY           SKY/WX    TMP DP  RH WIND       PRES   REMARKS
ALBANY         MOSUNNY   21  12  68 W8        29.71R WCI  11
GLENS FALLS    PTSUNNY   17  11  77 CALM      29.68R
POUGHKEEPSIE   MOSUNNY   23  15  71 NW6       29.69R WCI  16
NEWBURGH       SUNNY     19  18  93 NW7       29.69R WCI  10
MONTGOMERY     SUNNY     21  16  81 CALM      29.68R
WHITE PLAINS   PTSUNNY   25  18  74 N7        29.66R WCI  17
ISLIP          LGT SNOW  28  25  88 N13       29.67R FOG     WCI  17
NEW YORK CITY  CLOUDY    28  22  78 N12       29.70R WCI  18
CENTRAL PARK   CLOUDY    26  21  81 N8        29.71R WCI  18
$$

NYZ005>009-017-018-044>046-055-056-141600-
CENTRAL


CITY           SKY/WX    TMP DP  RH WIND       PRES   REMARKS
FULTON         HVY SNOW  11   6  81 NE5       29.83R VSB 1/4 WCI   3
SYRACUSE       PTSUNNY   10   5  80 NW10      29.82R WCI  -4
ROME           SUNNY      9   3  77 N8        29.79R WCI  -3
ELMIRA         LGT SNOW  20  13  74 VRB7      29.78R VSB 1   WCI  11
BINGHAMTON     LGT SNOW  15  10  80 NW15G22   29.68R WCI   0
MONTICELLO     SUNNY     21  13  71 NW10      29.65R WCI  10
$$

NYZ026>034-041>043-087-141600-
NORTH


CITY           SKY/WX    TMP DP  RH WIND       PRES   REMARKS
WATERTOWN      MOSUNNY    2  -4  76 CALM      29.84R
FORT DRUM      NOT AVBL
OGDENSBURG     FAIR       5  -4  66 W8        29.80R WCI  -8
MASSENA        SUNNY      1  -6  72 W13       29.80R WCI -17
SARANAC LAKE   SUNNY     -2  -8  76 SW9       29.59R WCI -18
PLATTSBURGH    SUNNY     10  -8  44 NW6       29.71R WCI   0
$$

NYZ001>004-010>016-019>021-085-141600-
WEST


CITY           SKY/WX    TMP DP  RH WIND       PRES   REMARKS
NIAGARA FALLS  FLURRIES  17   9  70 NW12      29.88R WCI   4
BUFFALO        LGT SNOW  15  10  80 NW10      29.88R WCI   2
DUNKIRK        CLOUDY    16   9  74 NW5       29.91R WCI   9
JAMESTOWN      FLURRIES  14   8  77 NW7       29.82R WCI   4
WELLSVILLE     CLOUDY    14   6  70 NW15      29.74R WCI  -1
ROCHESTER      FLURRIES  14   7  73 NW12      29.86R WCI   0
PENN YAN       LGT SNOW  16   8  71 NW12G20   29.80R VSB 1   WCI   3
$$

             KEY
       WCI = WIND CHILL INDEX
       VSB = VISIBILITY
       HX  = HEAT INDEX
$$




USA.gov is the U.S. government's official web portal to all federal, state and local government web resources and services.